Voltar ao catálogo

SL-16 DEB

AtivoLEO
NORAD 39854·DEBRIS·🇷🇺 Russia

Lançado Dec 25, 1992 de Baikonur Cosmodrome

Loading…

Próximas Passagens (próximas 24 horas)

TLE

ObsoletoSource: Space-Track

Época: Sep 6, 2026, 01:37 UTC

1 39854U 92093LG  26249.06798008  .00000563  00000-0  27601-3 0  9996
2 39854  71.0137  15.4746 0076749  30.3378 330.2156 14.20521011632024

Acompanhe SL-16 DEB em tempo real com AllMySat

Download on the App Store